Regional Weather Roundup
Issued by NWS

Home | Current Version | Previous Version | Graphics & Text | Print | Product List | Glossary On
Versions: 1 2 3 4 5 6 7 8 9 10 11 12 13 14 15 16 17 18 19 20 21 22 23 24 25 26 27 28
000
ASUS45 KBOI 030610
RWRID

IDAHO REGIONAL WEATHER ROUNDUP
NATIONAL WEATHER SERVICE BOISE ID
1100 PM MST FRI DEC 02 2016

NOTE: "FAIR" INDICATES FEW OR NO CLOUDS BELOW 12000 FEET
WITH NO SIGNIFICANT WEATHER AND/OR OBSTRUCTIONS TO VISIBILITY

IDZ012-014-030700-
SOUTHWEST IDAHO


CITY           SKY/WX    TMP DP  RH WIND       PRES   REMARKS
BOISE          CLOUDY    32  25  75 SE10      30.27F WCI  24
CALDWELL       NOT AVBL
MOUNTAIN HOME  CLOUDY    30  25  80 E7        30.28S WCI  23
$$

IDZ016-017-030700-
SOUTHCENTRAL IDAHO


CITY           SKY/WX    TMP DP  RH WIND       PRES   REMARKS
BURLEY         MOCLDY    27  20  75 S8        30.26R WCI  19
JEROME         CLOUDY    27  22  81 S5        30.27F WCI  22
TWIN FALLS     CLOUDY    28  20  71 S10       30.26S WCI  19
$$

IDZ019>023-030700-
SOUTHEAST IDAHO


CITY           SKY/WX    TMP DP  RH WIND       PRES   REMARKS
IDAHO FALLS    CLOUDY    26  19  74 S6        30.24F WCI  19
POCATELLO      CLOUDY    25  18  74 S12       30.27R WCI  14
REXBURG        CLOUDY    23  17  78 SW6       30.24F WCI  16
$$

IDZ006-010-011-018-031-032-030700-
CENTRAL IDAHO MOUNTAINS


CITY           SKY/WX    TMP DP  RH WIND       PRES   REMARKS
MCCALL         CLOUDY    24  19  81 CALM      30.18F
HAILEY         CLOUDY    23  21  93 CALM      30.21F
STANLEY          N/A     23  14  68 S3        30.12F
SALMON         CLOUDY    30  19  64 E3        30.14F
CHALLIS        NOT AVBL
$$

IDZ002-004-006-007-026-030700-
NORTHERN IDAHO


CITY           SKY/WX    TMP DP  RH WIND       PRES   REMARKS
LEWISTON       NOT AVBL
LOWELL           N/A     36  34  92 CALM      30.21R
COEUR D`ALENE  LGT SNOW  33  32  96 S5        30.06F FOG     WCI  29
MULLAN PASS    LGT SNOW  22  20  92 VRB7      29.95F FOG     WCI  13
$$




USA.gov is the U.S. government's official web portal to all federal, state and local government web resources and services.